82P/Gehrels 3 

Epoch 2001 Sept. 8.0 TT = JDT 2452160.5  

T 2001 Sept. 3.06687 TT                                 Nakano

q   3.6266258            (2000.0)            P               Q

n   0.11666999     Peri.  227.94725     -0.30287749     -0.95287818

a   4.1479160      Node   239.69072     +0.88009477     -0.27281743

e   0.1256752      Incl.    1.12713     +0.36564794     -0.13264168

P   8.45

From 79 observations 1975-2002, mean residual 0".82.

Residuals in seconds of arc 

1975/                     780305 381  1.3+  0.6-    930122 691  0.7+  0.7-  

751027 675  0.0   1.8-    780312 885  0.2-  0.3+    931209 691  0.2+  0.3-  

751028 675 (1.9+  2.7-)   780312 885  0.7+  1.0-    931209 691  0.5-  0.3-  

751030 675  0.5-  1.0+    780331 046 (2.5+  1.5-)   931209 691  0.4-  0.6-  

751107 801  0.8+  1.2+    780407 323 (2.8-  2.4+)   1994/                   

751109 801  0.5-  1.0+    780413 372 (0.8-  2.8+)Y  940116 691  0.3-  0.1-  

751110 801  0.5+  1.7+    780509 323  0.1-  1.2+    940116 691  0.2-  0.6-  

751130 801  1.0-  0.6+    1984/                     940116 691  0.1+  0.3-  

751130 801  0.3+  0.1+    840807 675  1.9+  0.2-    940314 675 (5.0-  0.9-) 

751207 693  1.1+  0.6+    840808 675  0.9+  0.4+    940314 675 (2.3+  1.4+) 

751207 693  1.2+  0.8+    1985/                     940405 691  0.9+  0.9-  

751208 801  0.9-  1.2+    851219 691 (3.5+  1.1-)   940405 691  1.4+  0.9-  

751229 801  2.0-  1.7+    851219 691 (2.7+  0.7-)   940405 691  0.8+  0.8-  

1976/                     851219 691 (2.4+  1.0-)   940502 691  0.6+  1.1-  

760127 691  0.2-  0.5+    1986/                     940502 691  0.4+  0.9-  

760225 801  1.5+  1.8-    860116 691 (3.3+  0.6-)   940502 691  1.0+  1.0-  

760226 801  1.8-  0.2-    860116 691 (3.2+  0.1+)   940612 691  0.2-  0.0   

761023 801  0.1-  0.3-    1987/                     940612 691  0.4+  0.6-  

761120 801  0.9-  0.9+    870501 691  0.6+  0.3-    940612 691  0.6-  0.8-  

761124 693  0.5-  0.2+    870501 691  1.5+  0.3+    1995/                   

761124 693  0.1+  0.5+    870501 691  0.5+  0.1+    950523 691  0.8-  0.9+  

761216 801  0.8-  0.7+    870523 691  0.2-  0.7+    950523 691  0.7+  0.7+  

761224 693  0.3-  0.1+    870523 691  0.1-  1.1+    950523 691  0.2-  0.4-  

761224 693  0.3-  0.3+    870523 691  0.7-  1.2+    950523 691 (2.6-  1.4+) 

1977/                     870524 691  0.3+  0.2+    950623 691  1.8-  0.4+  

770113 801  1.1-  0.3+    870524 691  0.0   0.0     950623 691  2.1-  1.3+  

770216 801  1.1-  0.4+    870524 691  0.5-  0.9+    950623 691  1.0-  0.4+  

770322 801 (3.7-  2.6+)   1992/                     2002/                   

771118 801  1.1+  0.1+    920926 691  0.2+  1.1-    020113 461  0.1+  1.4+  

771211 801  0.6-  1.0+    920926 691  0.6-  0.5-    020113 461  0.1-  1.9+  

1978/                     920928 691  0.4-  0.6-    020113 461  1.0+  0.6+  

780203 323 (3.4-  1.2-)   920928 691  1.6-  0.8-    020119 867  0.2+  0.9-  

780206 323 (1.5-  3.8-)   920928 691  0.5-  0.6-    020119 867  0.9-  0.4-  

780211 801  0.1+  0.3+    1993/                     020119 867  0.7-  0.2+  

780302 381  1.2+  0.9+    930122 691  0.6+  0.1-    020119 867  0.6-  0.3+  

780302 381  0.2+  0.5+    930122 691  0.6+  0.1-    



NAKANO

         **** Don't distribute anyone except personal use only ****

                (C) Copyright 2002 OAA/ComputingSection

write mail from CFAD0::NAKANO on 2002-01-29 00:05:43(JST).

 

–ß‚è‚Ü‚·B